Dumas, TX

7:32 AM CDT on September 22, 2017 (GMT -0500)
Moore County

Weather History for KDUX - June, 2014

Change the Weather History Date:

Monday, June 23, 2014

  Actual Average (KDHT) Record (KDHT)
Temperature  
Mean Temperature 69 °F -  
Max Temperature 81 °F 87 °F 105 °F (2011)
Min Temperature 57 °F 59 °F 50 °F (1989)
Cooling Degree Days 4    
Growing Degree Days 19 (Base 50)    
Moisture  
Dew Point 58 °F    
Average Humidity 71    
Maximum Humidity 97    
Minimum Humidity 43    
Precipitation  
Precipitation 0.02 in - - ()
Sea Level Pressure  
Sea Level Pressure 30.05 in    
Wind  
Wind Speed 11 mph (NE)    
Max Wind Speed 32 mph    
Max Gust Speed 39 mph    
Visibility 10 miles    
Events Rain    
Averages and records for this station are not official NWS values.
T = Trace of Precipitation, MM = Missing Value Source: NWS Daily Summary

Daily Weather History Graph

Daily Weather History Graph

Search for Another Location

Airport or City:

Trip Planner

Search our weather history database for the weather conditions in past years. The results will help you decide how hot, cold, wet, or windy it might be!

Date:

Astronomy

Jun. 23, 2014 Rise Set
Actual Time 6:32 AM CDT 9:08 PM CDT
Civil Twilight 6:02 AM CDT 9:38 PM CDT
Nautical Twilight 5:24 AM CDT 10:15 PM CDT
Astronomical Twilight 4:43 AM CDT 10:57 PM CDT
Moon 3:54 AM CDT (6/23) 5:55 PM CDT (6/23)
Length of Visible Light 15h 35m
Length of Day
14h 35m
Waning Crescent, 13% of the Moon is Illuminated
Jun 23
Waning Crescent
Jun 27
New
Jul 5
First Quarter
Jul 12
Full
Jul 18
Last Quarter

Hourly Weather History & Observations

Time (CDT) Temp. Heat Index Dew Point Humidity Pressure Visibility Wind Dir Wind Speed Gust Speed Precip Events Conditions
12:15 AM 59.7 °F - 59.0 °F 97% 30.05 in 10.0 mi NNE 12.7 mph 24.2 mph N/A Rain Light Rain
12:35 AM 59.7 °F - 58.3 °F 95% 29.97 in 10.0 mi NE 32.2 mph 39.1 mph N/A Rain Light Rain
12:55 AM 61.0 °F - 57.0 °F 87% 29.98 in 10.0 mi NE 25.3 mph 28.8 mph N/A   Scattered Clouds
1:15 AM 61.0 °F - 55.8 °F 83% 29.95 in 10.0 mi ENE 21.9 mph 33.4 mph N/A Rain Light Rain
1:35 AM 62.1 °F - 55.0 °F 78% 30.01 in 10.0 mi ENE 15.0 mph 26.5 mph N/A   Scattered Clouds
1:55 AM 61.0 °F - 55.9 °F 83% 30.02 in 10.0 mi East 10.4 mph 16.1 mph 0.01 in Rain Light Rain
2:15 AM 60.6 °F - 56.1 °F 85% 29.95 in 10.0 mi SE 24.2 mph 28.8 mph N/A Rain Light Rain
2:35 AM 61.0 °F - 56.3 °F 85% 29.95 in 10.0 mi East 13.8 mph 17.3 mph N/A   Clear
2:55 AM 61.0 °F - 56.8 °F 86% 29.93 in 10.0 mi ESE 10.4 mph - N/A   Clear
3:15 AM 61.0 °F - 57.2 °F 87% 29.98 in 10.0 mi Calm Calm - N/A   Clear
3:35 AM 60.8 °F - 57.7 °F 90% 30.01 in 10.0 mi North 3.5 mph - N/A   Clear
3:55 AM 60.8 °F - 58.1 °F 91% 30.00 in 10.0 mi NNW 11.5 mph - N/A   Clear
4:15 AM 60.1 °F - 57.7 °F 92% 30.00 in 10.0 mi North 3.5 mph 9.2 mph N/A   Clear
4:35 AM 59.9 °F - 57.4 °F 91% 30.00 in 10.0 mi North 8.1 mph - N/A   Clear
4:55 AM 59.2 °F - 57.2 °F 93% 30.00 in 10.0 mi North 9.2 mph - N/A   Clear
5:15 AM 59.2 °F - 56.8 °F 92% 30.02 in 10.0 mi North 9.2 mph - N/A   Clear
5:35 AM 59.0 °F - 56.5 °F 91% 30.02 in 10.0 mi North 9.2 mph - N/A   Clear
5:55 AM 58.5 °F - 56.3 °F 93% 30.02 in 10.0 mi North 10.4 mph - N/A   Clear
6:15 AM 58.3 °F - 55.9 °F 92% 30.03 in 10.0 mi North 9.2 mph - N/A   Clear
6:35 AM 57.7 °F - 55.8 °F 93% 30.04 in 10.0 mi North 10.4 mph - N/A   Clear
6:55 AM 57.7 °F - 55.8 °F 93% 30.05 in 10.0 mi North 9.2 mph - N/A   Clear
7:15 AM 58.1 °F - 55.9 °F 93% 30.06 in 10.0 mi North 9.2 mph - N/A   Clear
7:35 AM 58.1 °F - 56.3 °F 94% 30.07 in 10.0 mi North 4.6 mph - N/A   Clear
7:55 AM 58.6 °F - 57.2 °F 95% 30.07 in 10.0 mi North 9.2 mph - N/A   Clear
8:15 AM 59.0 °F - 57.2 °F 94% 30.07 in 10.0 mi North 8.1 mph - 0.01 in   Scattered Clouds
8:35 AM 59.9 °F - 57.7 °F 93% 30.08 in 10.0 mi North 8.1 mph - 0.01 in   Scattered Clouds
8:55 AM 61.0 °F - 58.1 °F 90% 30.09 in 10.0 mi North 9.2 mph - 0.01 in   Mostly Cloudy
9:15 AM 62.6 °F - 58.3 °F 86% 30.10 in 10.0 mi Calm Calm - N/A   Scattered Clouds
9:35 AM 63.7 °F - 58.3 °F 83% 30.10 in 10.0 mi Calm Calm - N/A   Clear
9:55 AM 65.5 °F - 58.5 °F 78% 30.10 in 10.0 mi North 4.6 mph - N/A   Clear
10:15 AM 66.0 °F - 57.9 °F 75% 30.10 in 10.0 mi NNW 10.4 mph - N/A   Scattered Clouds
10:35 AM 68.2 °F - 59.2 °F 73% 30.09 in 10.0 mi North 11.5 mph - N/A   Scattered Clouds
10:55 AM 68.4 °F - 58.8 °F 71% 30.09 in 10.0 mi NNW 11.5 mph 17.3 mph N/A   Scattered Clouds
11:15 AM 69.3 °F - 59.2 °F 70% 30.10 in 10.0 mi North 10.4 mph 17.3 mph N/A   Scattered Clouds
11:35 AM 70.7 °F - 59.2 °F 67% 30.10 in 10.0 mi NNW 10.4 mph 16.1 mph N/A   Scattered Clouds
11:55 AM 71.6 °F - 59.4 °F 65% 30.10 in 10.0 mi NNW 9.2 mph - N/A   Clear
12:15 PM 73.4 °F - 58.8 °F 60% 30.09 in 10.0 mi North 9.2 mph - N/A   Clear
12:35 PM 73.9 °F - 58.8 °F 59% 30.09 in 10.0 mi North 5.8 mph - N/A   Clear
12:55 PM 74.7 °F - 57.9 °F 56% 30.09 in 10.0 mi NNW 4.6 mph - N/A   Clear
1:15 PM 75.9 °F - 57.6 °F 53% 30.08 in 10.0 mi NNE 8.1 mph - N/A   Clear
1:35 PM 76.5 °F - 56.8 °F 51% 30.08 in 10.0 mi North 6.9 mph - N/A   Clear
1:55 PM 77.0 °F - 55.9 °F 48% 30.08 in 10.0 mi Calm Calm - N/A   Clear
2:15 PM 78.8 °F - 57.2 °F 47% 30.08 in 10.0 mi NE 10.4 mph - N/A   Clear
2:35 PM 79.5 °F - 55.9 °F 44% 30.07 in 10.0 mi Calm Calm - N/A   Clear
2:55 PM 79.7 °F - 56.5 °F 45% 30.07 in 10.0 mi East 5.8 mph - N/A   Clear
3:15 PM 80.2 °F 80.4 °F 56.1 °F 43% 30.07 in 10.0 mi Calm Calm - N/A   Clear
3:35 PM 80.4 °F 80.7 °F 57.6 °F 45% 30.07 in 10.0 mi ESE 9.2 mph - N/A   Clear
3:55 PM 81.0 °F 81.1 °F 57.7 °F 45% 30.06 in 10.0 mi ENE 3.5 mph - N/A   Clear
4:15 PM 81.0 °F 81.2 °F 58.1 °F 46% 30.06 in 10.0 mi ENE 10.4 mph - N/A   Clear
4:35 PM 80.6 °F 80.8 °F 57.4 °F 45% 30.05 in 10.0 mi ESE 5.8 mph - N/A   Clear
4:55 PM 81.1 °F 81.5 °F 59.2 °F 47% 30.05 in 10.0 mi SE 10.4 mph 17.3 mph N/A   Clear
5:15 PM 80.2 °F 80.8 °F 59.0 °F 48% 30.04 in 10.0 mi SE 12.7 mph 18.4 mph N/A   Scattered Clouds
5:35 PM 80.4 °F 81.1 °F 59.7 °F 49% 30.03 in 10.0 mi ESE 12.7 mph 19.6 mph N/A   Clear
5:55 PM 79.7 °F - 58.8 °F 49% 30.03 in 10.0 mi SE 9.2 mph - N/A   Clear
6:15 PM 78.8 °F - 59.7 °F 52% 30.03 in 10.0 mi ESE 9.2 mph 16.1 mph N/A   Clear
6:35 PM 78.8 °F - 60.6 °F 54% 30.03 in 10.0 mi ESE 11.5 mph 18.4 mph N/A   Clear
6:55 PM 77.9 °F - 60.4 °F 55% 30.04 in 10.0 mi ESE 11.5 mph - N/A   Clear
7:15 PM 78.1 °F - 60.1 °F 54% 30.05 in 10.0 mi ESE 12.7 mph 16.1 mph N/A   Clear
7:35 PM 77.9 °F - 59.5 °F 53% 30.05 in 10.0 mi ESE 11.5 mph - N/A   Clear
7:55 PM 76.1 °F - 59.4 °F 56% 30.06 in 10.0 mi ESE 10.4 mph - N/A   Clear
8:15 PM 75.2 °F - 59.5 °F 58% 30.06 in 10.0 mi ESE 10.4 mph - N/A   Clear
8:35 PM 74.3 °F - 59.9 °F 61% 30.07 in 10.0 mi SE 6.9 mph - N/A   Clear
8:55 PM 72.9 °F - 60.4 °F 65% 30.09 in 10.0 mi Calm Calm - N/A   Clear
9:15 PM 71.2 °F - 61.2 °F 70% 30.10 in 10.0 mi Calm Calm - N/A   Clear
9:35 PM 70.9 °F - 61.3 °F 72% 30.10 in 10.0 mi Calm Calm - N/A   Scattered Clouds
10:55 PM 70.3 °F - 60.6 °F 71% 30.13 in 10.0 mi East 6.9 mph - N/A   Clear
11:15 PM 70.2 °F - 60.8 °F 72% 30.15 in 10.0 mi Calm Calm - N/A   Clear
11:35 PM 70.2 °F - 61.0 °F 73% 30.15 in 10.0 mi Calm Calm - N/A   Scattered Clouds
11:55 PM 68.7 °F - 62.4 °F 80% 30.14 in 10.0 mi Calm Calm - N/A   Scattered Clouds